Weather History for Hammond, LA

Change the Weather History Date:

Monday, September 3, 2012

  Actual Average (KMSY) Record (KMSY)
Temperature  
Mean Temperature 85 °F -  
Max Temperature 93 °F 89 °F 96 °F (2000)
Min Temperature 77 °F 73 °F 67 °F (1954)
Cooling Degree Days 20    
Growing Degree Days 35 (Base 50)    
Moisture  
Dew Point 78 °F    
Average Humidity 82    
Maximum Humidity 100    
Minimum Humidity 56    
Precipitation  
Precipitation 0.00 in - - ()
Sea Level Pressure  
Sea Level Pressure 30.00 in    
Wind  
Wind Speed 4 mph (WSW)    
Max Wind Speed 9 mph    
Max Gust Speed -    
Visibility 9 miles    
Events      
Averages and records for this station are not official NWS values.
T = Trace of Precipitation, MM = Missing Value Source: NWS Daily Summary

Daily Weather History Graph

Daily Weather History Graph

Search for Another Location

Airport:

Trip Planner

Search our weather history database for the weather conditions in past years. The results will help you decide how hot, cold, wet, or windy it might be!

Date:

Astronomy

Sep. 03, 2012 Rise Set
Actual Time 6:39 AM CDT 7:21 PM CDT
Civil Twilight 6:15 AM CDT 7:45 PM CDT
Nautical Twilight 5:46 AM CDT 8:14 PM CDT
Astronomical Twilight 5:17 AM CDT 8:43 PM CDT
Moon 9:00 PM CDT (9/3) 9:29 AM CDT (9/3)
Length of Visible Light 13h 30m
Length of Day
12h 41m
Waning Gibbous, 90% of the Moon is Illuminated
Sep 3
Waning Gibbous
Sep 8
Last Quarter
Sep 15
New
Sep 22
First Quarter
Sep 29
Full

Hourly Weather History & Observations

Time (CDT) Temp. Heat Index Dew Point Humidity Pressure Visibility Wind Dir Wind Speed Gust Speed Precip Events Conditions
12:15 AM 80.6 °F 88.1 °F 78.8 °F 94% 30.02 in 10.0 mi SW 3.5 mph - N/A   Clear
12:35 AM 78.8 °F - 78.8 °F 100% 30.01 in 10.0 mi SW 4.6 mph - N/A   Clear
12:55 AM 78.8 °F - 78.8 °F 100% 30.01 in 10.0 mi SW 4.6 mph - N/A   Clear
1:15 AM 78.8 °F - 78.8 °F 100% 30.00 in 10.0 mi SW 4.6 mph - N/A   Clear
1:35 AM 78.8 °F - 78.8 °F 100% 30.00 in 10.0 mi SW 4.6 mph - N/A   Clear
1:55 AM 78.8 °F - 78.8 °F 100% 30.00 in 10.0 mi SW 4.6 mph - N/A   Clear
2:15 AM 78.8 °F - 78.8 °F 100% 30.00 in 10.0 mi SW 4.6 mph - N/A   Clear
2:35 AM 78.8 °F - 78.8 °F 100% 30.00 in 10.0 mi WSW 3.5 mph - N/A   Clear
2:55 AM 78.8 °F - 78.8 °F 100% 30.00 in 10.0 mi SW 3.5 mph - N/A   Clear
3:15 AM 78.8 °F - 78.8 °F 100% 29.99 in 10.0 mi SW 3.5 mph - N/A   Clear
3:35 AM 78.8 °F - 77.0 °F 94% 30.00 in 10.0 mi WSW 3.5 mph - N/A   Clear
3:55 AM 78.8 °F - 77.0 °F 94% 30.00 in 7.0 mi Calm Calm - N/A   Clear
4:15 AM 78.8 °F - 77.0 °F 94% 29.99 in 7.0 mi SW 4.6 mph - N/A   Clear
4:35 AM 78.8 °F - 77.0 °F 94% 30.00 in 7.0 mi SW 4.6 mph - N/A   Clear
4:55 AM 77.0 °F - 77.0 °F 100% 30.00 in 7.0 mi SW 3.5 mph - N/A   Clear
5:15 AM 77.0 °F - 77.0 °F 100% 30.00 in 7.0 mi Calm Calm - N/A   Clear
5:35 AM 77.0 °F - 77.0 °F 100% 30.00 in 7.0 mi SW 3.5 mph - N/A   Clear
5:55 AM 77.0 °F - 77.0 °F 100% 30.01 in 7.0 mi SW 4.6 mph - N/A   Clear
6:15 AM 77.0 °F - 77.0 °F 100% 30.02 in 7.0 mi Calm Calm - N/A   Clear
6:35 AM 77.0 °F - 77.0 °F 100% 30.02 in 7.0 mi Calm Calm - N/A   Clear
6:55 AM 77.0 °F - 77.0 °F 100% 30.03 in 7.0 mi Calm Calm - N/A   Clear
7:15 AM 78.8 °F - 77.0 °F 94% 30.03 in 7.0 mi Calm Calm - N/A   Clear
7:35 AM 78.8 °F - 78.8 °F 100% 30.04 in 7.0 mi WSW 4.6 mph - N/A   Clear
7:55 AM 80.6 °F 88.1 °F 78.8 °F 94% 30.04 in 7.0 mi West 3.5 mph - N/A   Clear
8:15 AM 82.4 °F 92.4 °F 78.8 °F 89% 30.04 in 10.0 mi West 5.8 mph - N/A   Clear
8:35 AM 82.4 °F 92.4 °F 78.8 °F 89% 30.04 in 10.0 mi WSW 6.9 mph - N/A   Clear
8:55 AM 84.2 °F 96.1 °F 78.8 °F 84% 30.04 in 10.0 mi West 9.2 mph - N/A   Clear
9:15 AM 84.2 °F 96.1 °F 78.8 °F 84% 30.05 in 10.0 mi West 8.1 mph - N/A   Scattered Clouds
9:35 AM 86.0 °F 99.3 °F 78.8 °F 79% 30.05 in 10.0 mi West 8.1 mph - N/A   Scattered Clouds
9:55 AM 86.0 °F 99.3 °F 78.8 °F 79% 30.06 in 10.0 mi West 9.2 mph - N/A   Scattered Clouds
10:15 AM 87.8 °F 102.5 °F 78.8 °F 75% 30.06 in 10.0 mi West 6.9 mph - N/A   Mostly Cloudy
10:35 AM 86.0 °F 96.9 °F 77.0 °F 74% 30.06 in 10.0 mi West 8.1 mph - N/A   Mostly Cloudy
10:55 AM 87.8 °F 99.7 °F 77.0 °F 70% 30.05 in 10.0 mi WSW 5.8 mph - N/A   Mostly Cloudy
11:15 AM 89.6 °F 104.7 °F 78.8 °F 70% 30.05 in 10.0 mi SW 3.5 mph - N/A   Scattered Clouds
11:35 AM 87.8 °F 99.7 °F 77.0 °F 70% 30.05 in 10.0 mi SW 6.9 mph - N/A   Scattered Clouds
11:55 AM 89.6 °F 102.2 °F 77.0 °F 66% 30.05 in 10.0 mi West 6.9 mph - N/A   Scattered Clouds
12:15 PM 89.6 °F 102.2 °F 77.0 °F 66% 30.04 in 10.0 mi WSW 5.8 mph - N/A   Scattered Clouds
12:35 PM 89.6 °F 104.7 °F 78.8 °F 70% 30.03 in 10.0 mi West 6.9 mph - N/A   Mostly Cloudy
12:55 PM 89.6 °F 102.2 °F 77.0 °F 66% 30.03 in 10.0 mi NNW 3.5 mph - N/A   Scattered Clouds
1:15 PM 89.6 °F 102.2 °F 77.0 °F 66% 30.02 in 10.0 mi WSW 5.8 mph - N/A   Mostly Cloudy
1:35 PM 91.4 °F 105.1 °F 77.0 °F 63% 30.02 in 10.0 mi SW 5.8 mph - N/A   Mostly Cloudy
1:55 PM 89.6 °F 102.2 °F 77.0 °F 66% 30.01 in 10.0 mi West 4.6 mph - N/A   Mostly Cloudy
2:15 PM 91.4 °F 107.2 °F 78.8 °F 66% 30.00 in 10.0 mi West 4.6 mph - N/A   Mostly Cloudy
2:55 PM 91.4 °F 105.1 °F 77.0 °F 63% 29.98 in 10.0 mi WSW 8.1 mph - N/A   Clear
3:15 PM 93.2 °F 107.2 °F 77.0 °F 59% 29.98 in 10.0 mi SW 6.9 mph - N/A   Clear
3:35 PM 91.4 °F 105.1 °F 77.0 °F 63% 29.97 in 10.0 mi SW 6.9 mph - N/A   Scattered Clouds
3:55 PM 93.2 °F 107.2 °F 77.0 °F 59% 29.97 in 10.0 mi SW 6.9 mph - N/A   Mostly Cloudy
4:15 PM 93.2 °F 107.2 °F 77.0 °F 59% 29.96 in 10.0 mi West 5.8 mph - N/A   Mostly Cloudy
4:35 PM 93.2 °F 107.2 °F 77.0 °F 59% 29.96 in 10.0 mi WSW 5.8 mph - N/A   Scattered Clouds
4:55 PM 93.2 °F 107.2 °F 77.0 °F 59% 29.96 in 10.0 mi SW 5.8 mph - N/A   Clear
5:15 PM 93.2 °F 105.0 °F 75.2 °F 56% 29.95 in 10.0 mi West 8.1 mph - N/A   Clear
5:35 PM 93.2 °F 105.0 °F 75.2 °F 56% 29.95 in 10.0 mi SW 8.1 mph - N/A   Clear
5:55 PM 91.4 °F 105.1 °F 77.0 °F 63% 29.95 in 10.0 mi WSW 4.6 mph - N/A   Clear
6:15 PM 91.4 °F 105.1 °F 77.0 °F 63% 29.94 in 10.0 mi WSW 4.6 mph - N/A   Clear
6:35 PM 89.6 °F 99.8 °F 75.2 °F 62% 29.94 in 10.0 mi SW 4.6 mph - N/A   Clear
6:55 PM 87.8 °F 97.6 °F 75.2 °F 66% 29.95 in 10.0 mi Calm Calm - N/A   Clear
7:15 PM 87.8 °F 99.7 °F 77.0 °F 70% 29.94 in 10.0 mi Calm Calm - N/A   Clear
7:35 PM 86.0 °F 96.9 °F 77.0 °F 74% 29.94 in 10.0 mi Calm Calm - N/A   Clear
7:55 PM 82.4 °F 92.4 °F 78.8 °F 89% 29.94 in 10.0 mi Calm Calm - N/A   Clear
8:15 PM 82.4 °F 92.4 °F 78.8 °F 89% 29.95 in 10.0 mi Calm Calm - N/A   Clear
8:35 PM 82.4 °F 92.4 °F 78.8 °F 89% 29.95 in 10.0 mi Calm Calm - N/A   Clear
8:55 PM 82.4 °F 90.9 °F 77.0 °F 84% 29.96 in 10.0 mi Calm Calm - N/A   Clear
9:15 PM 84.2 °F 94.1 °F 77.0 °F 79% 29.97 in 10.0 mi SSW 4.6 mph - N/A   Clear
9:35 PM 84.2 °F 96.1 °F 78.8 °F 84% 29.97 in 10.0 mi SW 4.6 mph - N/A   Clear
9:55 PM 82.4 °F 92.4 °F 78.8 °F 89% 29.97 in 10.0 mi SW 5.8 mph - N/A   Clear
10:15 PM 82.4 °F 92.4 °F 78.8 °F 89% 29.97 in 10.0 mi SW 5.8 mph - N/A   Clear
10:35 PM 82.4 °F 90.9 °F 77.0 °F 84% 29.98 in 10.0 mi SW 4.6 mph - N/A   Clear
11:15 PM 82.4 °F 90.9 °F 77.0 °F 84% 29.97 in 10.0 mi SW 5.8 mph - N/A   Clear
11:35 PM 80.6 °F 87.1 °F 77.0 °F 89% 29.97 in 10.0 mi SW 5.8 mph - N/A   Clear
11:55 PM 80.6 °F 87.1 °F 77.0 °F 89% 29.97 in 10.0 mi SW 4.6 mph - N/A   Clear